Showing default

HXMT, 42758

Orbit data source: Space-Track

HXMT, 42758 is a payload satellite owned by CNSA (CN) in LEO that was launched on Thu, 15 Jun 2017 UTC via a CHANG ZHENG 4B launch vehicle from the Jiuquan Satellite Launch Center, China (JSC). Payload-class satellites include a variety of spacecraft equipped with specific instruments for various scientific and technological missions. These include communications satellites like Starlink; space stations such as the ISS; scientific satellites like the Hubble; Earth observation satellites from companies like Planet Labs, Umbra, and HawkEye 360; GPS; miniature CubeSats for education and research; and military/defense satellites.

Loading next visibility...
Identifier
42758, 2017-034A
Orbit
LEO
Country
Flag of CNCN / PRC
Related business
Manufacturer
CAST
Mission
Operational Civil Astronomy
Bus & Motor
ZY, Unknown motor
Mass
3,000 kg wet, ~2,900 kg dry
Launch date (UTC)
2017-06-15 (8 years ago)
Launch vehicle
CHANG ZHENG 4B
Launch site
Jiuquan Satellite Launch Center, China (JSC)
Object type
Payload
Rocket body
Debris
Shape & HBR
Box + 2 Pan, 5.0 m
Radar Cross Section
10.304 m², Large (>1 m²)

Expand to show TLE details & history
Last TLE update: 21 hours ago

TLE from 21 hours ago
0 HXMT
1 42758U 17034A   25301.65569734  .00008330  00000-0  43840-3 0  9993
2 42758  43.0154  29.6762 0031938 121.9386 238.4574 15.15501851462491
Epoch: 2025-10-28T15:44Z
TLE epoch observation values (Epoch: 2025-10-28T15:44:12.250Z)
Latitude
0.00002°
Longitude
116.38512°
Altitude
530.807 km
Speed
7.593 km/s
True Right ascension
01h 58m 42s
True Declination
0° 00' 00"
Sunlit
Object was in full shadow at epoch
Visualization orbit readout
Latitude
Unknown
Longitude
Unknown
Altitude
Unknown
Speed
Unknown
Apparent Right ascension
Unknown
Apparent Declination
Unknown
Sunlit
N/A
Visualization observer readout
Local Sidereal Time
08:02:19
Azimuth
Unknown
Elevation
Unknown
Doppler factor
Unknown
Orbital elements
Apogee altitude
543.424 km
Perigee altitude
499.352 km
Semi-major axis
6,899.525 km
Eccentricity
0.00319
Inclination
43.0154°
RAAN
29.6762°
Arg. of periapsis
121.9386°
True anomaly
238.14614°
Mean anomaly
238.4574°
Eccentric anomaly
238.30171°
Mean motion
3.78717 °/min
Orbital period
95.06 mins
BSTAR
0.0004384
Loading maneuver chart data...
Computing Atmospheric mass density...
Loading historical data...
Loading historical data...
Loading historical data...
Loading historical data...
Loading historical data...
Loading historical data...
Loading historical data...

Documentation

Showing up to 5 results
|